Time,TemperatureF,DewpointF,PressureIn,WindDirection,WindDirectionDegrees,WindSpeedMPH,WindSpeedGustMPH,Humidity,HourlyPrecipIn,Conditions,Clouds,dailyrainin,SoftwareType,DateUTC
2013-07-31 00:04:00,71.7,61.0,30.15,NE,38,1.0,2.0,69,0.00,,,0.00,Wunderground PWS Mod,2013-07-31 04:04:00,
2013-07-31 00:14:00,70.8,60.5,30.15,NE,38,1.0,2.0,70,0.00,,,0.00,Wunderground PWS Mod,2013-07-31 04:14:00,
2013-07-31 00:16:00,70.9,60.6,30.15,NE,38,0.0,2.0,70,0.00,,,0.00,Wunderground PWS Mod,2013-07-31 04:16:00,
2013-07-31 00:18:00,71.0,59.9,30.15,NE,45,0.0,2.0,68,0.00,,,0.00,Wunderground PWS Mod,2013-07-31 04:18:00,
2013-07-31 00:24:00,70.9,60.2,30.15,NE,38,0.0,2.0,69,0.00,,,0.00,Wunderground PWS Mod,2013-07-31 04:24:00,
2013-07-31 00:28:00,70.7,60.0,30.15,NE,38,1.0,2.0,69,0.00,,,0.00,Wunderground PWS Mod,2013-07-31 04:28:00,
2013-07-31 00:34:00,70.3,59.2,30.15,WNW,300,1.0,2.0,68,0.00,,,0.00,Wunderground PWS Mod,2013-07-31 04:34:00,
2013-07-31 00:44:00,70.0,59.8,30.15,North,2,1.0,2.0,70,0.00,,,0.00,Wunderground PWS Mod,2013-07-31 04:44:00,
2013-07-31 00:46:00,71.0,59.9,30.15,NE,45,0.0,2.0,68,0.00,,,0.00,Wunderground PWS Mod,2013-07-31 04:46:00,
2013-07-31 00:54:00,70.3,59.6,30.15,North,3,1.0,2.0,69,0.00,,,0.00,Wunderground PWS Mod,2013-07-31 04:54:00,
2013-07-31 01:04:00,70.0,59.4,30.15,North,3,0.0,2.0,69,0.00,,,0.00,Wunderground PWS Mod,2013-07-31 05:04:00,
2013-07-31 01:10:00,70.2,59.6,30.15,North,0,1.0,3.0,69,0.00,,,0.00,Wunderground PWS Mod,2013-07-31 05:10:00,
2013-07-31 01:12:00,70.2,59.6,30.15,North,0,1.0,3.0,69,0.00,,,0.00,Wunderground PWS Mod,2013-07-31 05:12:00,
2013-07-31 01:14:00,68.5,59.1,30.15,North,3,0.0,3.0,72,0.00,,,0.00,Wunderground PWS Mod,2013-07-31 05:14:00,
2013-07-31 01:24:00,67.1,58.5,30.15,North,3,1.0,3.0,74,0.00,,,0.00,Wunderground PWS Mod,2013-07-31 05:24:00,
2013-07-31 01:34:00,67.2,59.4,30.15,North,3,0.0,3.0,76,0.00,,,0.00,Wunderground PWS Mod,2013-07-31 05:34:00,
2013-07-31 01:44:00,67.6,59.0,30.15,North,3,0.0,3.0,74,0.00,,,0.00,Wunderground PWS Mod,2013-07-31 05:44:00,
2013-07-31 01:46:00,68.0,60.2,30.15,North,0,0.0,1.0,76,0.00,,,0.00,Wunderground PWS Mod,2013-07-31 05:46:00,
2013-07-31 01:54:00,69.1,59.7,30.15,North,3,0.0,3.0,72,0.00,,,0.00,Wunderground PWS Mod,2013-07-31 05:54:00,
2013-07-31 02:04:00,70.0,59.8,30.15,North,3,0.0,1.0,70,0.00,,,0.00,Wunderground PWS Mod,2013-07-31 06:04:00,
2013-07-31 02:10:00,68.3,58.5,30.15,North,0,0.0,2.0,71,0.00,,,0.00,Wunderground PWS Mod,2013-07-31 06:10:00,
2013-07-31 02:12:00,68.3,58.5,30.15,North,0,0.0,2.0,71,0.00,,,0.00,Wunderground PWS Mod,2013-07-31 06:12:00,
2013-07-31 02:14:00,69.6,59.8,30.15,North,3,0.0,2.0,71,0.00,,,0.00,Wunderground PWS Mod,2013-07-31 06:14:00,
2013-07-31 02:24:00,68.7,59.7,30.15,North,3,0.0,2.0,73,0.00,,,0.00,Wunderground PWS Mod,2013-07-31 06:24:00,
2013-07-31 02:34:00,68.9,59.9,30.15,North,3,0.0,2.0,73,0.00,,,0.00,Wunderground PWS Mod,2013-07-31 06:34:00,
2013-07-31 02:44:00,68.2,60.0,30.15,North,3,1.0,2.0,75,0.00,,,0.00,Wunderground PWS Mod,2013-07-31 06:44:00,
2013-07-31 02:50:00,68.5,59.5,30.15,North,0,0.0,2.0,73,0.00,,,0.00,Wunderground PWS Mod,2013-07-31 06:50:00,
2013-07-31 02:52:00,68.5,59.5,30.15,North,0,0.0,2.0,73,0.00,,,0.00,Wunderground PWS Mod,2013-07-31 06:52:00,
2013-07-31 02:54:00,68.5,59.9,30.15,North,3,0.0,2.0,74,0.00,,,0.00,Wunderground PWS Mod,2013-07-31 06:54:00,
2013-07-31 03:04:00,69.3,60.3,30.15,North,3,2.0,2.0,73,0.00,,,0.00,Wunderground PWS Mod,2013-07-31 07:04:00,
2013-07-31 03:10:00,68.5,59.5,30.15,North,0,0.0,2.0,73,0.00,,,0.00,Wunderground PWS Mod,2013-07-31 07:10:00,
2013-07-31 03:12:00,68.5,59.5,30.15,North,0,0.0,2.0,73,0.00,,,0.00,Wunderground PWS Mod,2013-07-31 07:12:00,
2013-07-31 03:14:00,69.4,60.0,30.15,North,3,0.0,2.0,72,0.00,,,0.00,Wunderground PWS Mod,2013-07-31 07:14:00,
2013-07-31 03:24:00,69.3,59.9,30.14,North,3,0.0,2.0,72,0.00,,,0.00,Wunderground PWS Mod,2013-07-31 07:24:00,
2013-07-31 03:34:00,68.5,59.1,30.14,North,3,0.0,2.0,72,0.00,,,0.00,Wunderground PWS Mod,2013-07-31 07:34:00,
2013-07-31 03:44:00,68.2,59.2,30.14,North,3,0.0,2.0,73,0.00,,,0.00,Wunderground PWS Mod,2013-07-31 07:44:00,
2013-07-31 03:48:00,68.3,58.9,30.14,North,0,0.0,2.0,72,0.00,,,0.00,Wunderground PWS Mod,2013-07-31 07:48:00,
2013-07-31 03:54:00,68.2,58.8,30.14,North,3,0.0,2.0,72,0.00,,,0.00,Wunderground PWS Mod,2013-07-31 07:54:00,
2013-07-31 04:04:00,68.4,59.4,30.14,North,3,0.0,2.0,73,0.00,,,0.00,Wunderground PWS Mod,2013-07-31 08:04:00,
2013-07-31 04:14:00,68.9,59.5,30.14,North,3,1.0,2.0,72,0.00,,,0.00,Wunderground PWS Mod,2013-07-31 08:14:00,
2013-07-31 04:18:00,68.8,59.0,30.13,North,0,0.0,1.0,71,0.00,,,0.00,Wunderground PWS Mod,2013-07-31 08:18:00,
2013-07-31 04:24:00,68.7,58.9,30.14,North,3,0.0,2.0,71,0.00,,,0.00,Wunderground PWS Mod,2013-07-31 08:24:00,
2013-07-31 04:34:00,68.2,58.4,30.14,North,3,0.0,2.0,71,0.00,,,0.00,Wunderground PWS Mod,2013-07-31 08:34:00,
2013-07-31 04:44:00,68.5,59.1,30.14,North,3,0.0,2.0,72,0.00,,,0.00,Wunderground PWS Mod,2013-07-31 08:44:00,
2013-07-31 04:48:00,68.3,59.7,30.14,North,0,0.0,1.0,74,0.00,,,0.00,Wunderground PWS Mod,2013-07-31 08:48:00,
2013-07-31 04:54:00,68.5,58.7,30.15,North,3,0.0,2.0,71,0.00,,,0.00,Wunderground PWS Mod,2013-07-31 08:54:00,
2013-07-31 05:04:00,67.8,59.2,30.14,North,3,1.0,1.0,74,0.00,,,0.00,Wunderground PWS Mod,2013-07-31 09:04:00,
2013-07-31 05:14:00,67.9,59.3,30.14,North,3,0.0,1.0,74,0.00,,,0.00,Wunderground PWS Mod,2013-07-31 09:14:00,
2013-07-31 05:16:00,68.3,59.7,30.14,North,0,0.0,1.0,74,0.00,,,0.00,Wunderground PWS Mod,2013-07-31 09:16:00,
2013-07-31 05:24:00,68.3,59.7,30.14,North,3,1.0,1.0,74,0.00,,,0.00,Wunderground PWS Mod,2013-07-31 09:24:00,
2013-07-31 05:34:00,67.9,59.3,30.15,North,3,0.0,1.0,74,0.00,,,0.00,Wunderground PWS Mod,2013-07-31 09:34:00,
2013-07-31 05:44:00,68.3,59.7,30.14,North,3,0.0,1.0,74,0.00,,,0.00,Wunderground PWS Mod,2013-07-31 09:44:00,
2013-07-31 05:48:00,68.8,59.0,30.14,North,0,0.0,2.0,71,0.00,,,0.00,Wunderground PWS Mod,2013-07-31 09:48:00,
2013-07-31 05:54:00,69.9,60.1,30.15,North,3,0.0,1.0,71,0.00,,,0.00,Wunderground PWS Mod,2013-07-31 09:54:00,
2013-07-31 06:04:00,69.0,59.2,30.15,North,3,1.0,1.0,71,0.00,,,0.00,Wunderground PWS Mod,2013-07-31 10:04:00,
2013-07-31 06:14:00,67.8,59.2,30.15,North,3,0.0,2.0,74,0.00,,,0.00,Wunderground PWS Mod,2013-07-31 10:14:00,
2013-07-31 06:18:00,68.6,59.2,30.14,North,0,0.0,2.0,72,0.00,,,0.00,Wunderground PWS Mod,2013-07-31 10:18:00,
2013-07-31 06:24:00,69.4,60.4,30.15,North,3,0.0,2.0,73,0.00,,,0.00,Wunderground PWS Mod,2013-07-31 10:24:00,
2013-07-31 06:34:00,69.1,59.7,30.15,North,3,0.0,2.0,72,0.00,,,0.00,Wunderground PWS Mod,2013-07-31 10:34:00,
2013-07-31 06:44:00,67.9,59.3,30.15,North,3,0.0,2.0,74,0.00,,,0.00,Wunderground PWS Mod,2013-07-31 10:44:00,
2013-07-31 06:46:00,68.6,59.2,30.14,North,0,0.0,2.0,72,0.00,,,0.00,Wunderground PWS Mod,2013-07-31 10:46:00,
2013-07-31 06:54:00,68.2,60.0,30.15,North,3,0.0,2.0,75,0.00,,,0.00,Wunderground PWS Mod,2013-07-31 10:54:00,
2013-07-31 07:04:00,68.9,60.6,30.15,North,3,0.0,2.0,75,0.00,,,0.00,Wunderground PWS Mod,2013-07-31 11:04:00,
2013-07-31 07:14:00,69.9,60.8,30.15,North,3,0.0,2.0,73,0.00,,,0.00,Wunderground PWS Mod,2013-07-31 11:14:00,
2013-07-31 07:16:00,68.3,60.4,30.15,North,0,0.0,1.0,76,0.00,,,0.00,Wunderground PWS Mod,2013-07-31 11:16:00,
2013-07-31 07:24:00,69.6,60.6,30.15,North,3,1.0,2.0,73,0.00,,,0.00,Wunderground PWS Mod,2013-07-31 11:24:00,
2013-07-31 07:34:00,69.5,60.8,30.15,North,3,1.0,2.0,74,0.00,,,0.00,Wunderground PWS Mod,2013-07-31 11:34:00,
2013-07-31 07:44:00,70.0,60.9,30.16,North,3,1.0,2.0,73,0.00,,,0.00,Wunderground PWS Mod,2013-07-31 11:44:00,
2013-07-31 07:50:00,70.3,60.1,30.15,North,0,1.0,2.0,70,0.00,,,0.00,Wunderground PWS Mod,2013-07-31 11:50:00,
2013-07-31 07:52:00,70.3,60.1,30.15,North,0,1.0,2.0,70,0.00,,,0.00,Wunderground PWS Mod,2013-07-31 11:52:00,
2013-07-31 07:54:00,70.8,61.3,30.15,North,3,1.0,2.0,72,0.00,,,0.00,Wunderground PWS Mod,2013-07-31 11:54:00,
2013-07-31 08:04:00,72.2,61.5,30.16,North,3,2.0,2.0,69,0.00,,,0.00,Wunderground PWS Mod,2013-07-31 12:04:00,
2013-07-31 08:14:00,72.5,62.2,30.15,NNW,327,1.0,2.0,70,0.00,,,0.00,Wunderground PWS Mod,2013-07-31 12:14:00,
2013-07-31 08:20:00,74.1,60.7,30.15,ENE,68,1.0,2.0,63,0.00,,,0.00,Wunderground PWS Mod,2013-07-31 12:20:00,
2013-07-31 08:22:00,74.1,60.7,30.15,ENE,68,1.0,2.0,63,0.00,,,0.00,Wunderground PWS Mod,2013-07-31 12:22:00,
2013-07-31 08:24:00,76.0,62.5,30.15,ENE,58,1.0,2.0,63,0.00,,,0.00,Wunderground PWS Mod,2013-07-31 12:24:00,
2013-07-31 08:34:00,77.0,63.4,30.15,NE,53,1.0,2.0,63,0.00,,,0.00,Wunderground PWS Mod,2013-07-31 12:34:00,
2013-07-31 08:44:00,77.4,63.8,30.15,NE,48,1.0,2.0,63,0.00,,,0.00,Wunderground PWS Mod,2013-07-31 12:44:00,
2013-07-31 08:48:00,77.4,63.4,30.15,NE,45,1.0,3.0,62,0.00,,,0.00,Wunderground PWS Mod,2013-07-31 12:48:00,
2013-07-31 08:54:00,77.3,63.7,30.15,NE,47,1.0,2.0,63,0.00,,,0.00,Wunderground PWS Mod,2013-07-31 12:54:00,
2013-07-31 09:04:00,77.7,63.6,30.15,NE,47,2.0,2.0,62,0.00,,,0.00,Wunderground PWS Mod,2013-07-31 13:04:00,
2013-07-31 09:14:00,76.9,62.0,30.15,SW,215,4.0,4.0,60,0.00,,,0.00,Wunderground PWS Mod,2013-07-31 13:14:00,
2013-07-31 09:20:00,77.2,62.2,30.14,SW,225,2.0,6.0,60,0.00,,,0.00,Wunderground PWS Mod,2013-07-31 13:20:00,
2013-07-31 09:22:00,77.2,62.2,30.14,SW,225,2.0,6.0,60,0.00,,,0.00,Wunderground PWS Mod,2013-07-31 13:22:00,
2013-07-31 09:24:00,77.1,62.6,30.15,SW,228,1.0,4.0,61,0.00,,,0.00,Wunderground PWS Mod,2013-07-31 13:24:00,
2013-07-31 09:34:00,78.0,63.0,30.15,South,171,2.0,4.0,60,0.00,,,0.00,Wunderground PWS Mod,2013-07-31 13:34:00,
2013-07-31 09:44:00,78.0,63.0,30.15,WNW,293,1.0,6.0,60,0.00,,,0.00,Wunderground PWS Mod,2013-07-31 13:44:00,
2013-07-31 09:48:00,78.8,61.8,30.14,South,180,2.0,5.0,56,0.00,,,0.00,Wunderground PWS Mod,2013-07-31 13:48:00,
2013-07-31 09:54:00,79.4,63.8,30.15,SE,134,3.0,6.0,59,0.00,,,0.00,Wunderground PWS Mod,2013-07-31 13:54:00,
2013-07-31 10:04:00,80.7,64.1,30.15,SSW,212,1.0,6.0,57,0.00,,,0.00,Wunderground PWS Mod,2013-07-31 14:04:00,
2013-07-31 10:14:00,80.5,63.4,30.14,South,183,4.0,6.0,56,0.00,,,0.00,Wunderground PWS Mod,2013-07-31 14:14:00,
2013-07-31 10:18:00,80.2,63.6,30.13,SE,135,4.0,9.0,57,0.00,,,0.00,Wunderground PWS Mod,2013-07-31 14:18:00,
2013-07-31 10:24:00,79.8,63.2,30.14,SE,138,4.0,8.0,57,0.00,,,0.00,Wunderground PWS Mod,2013-07-31 14:24:00,
2013-07-31 10:34:00,79.1,62.1,30.14,SSW,206,3.0,8.0,56,0.00,,,0.00,Wunderground PWS Mod,2013-07-31 14:34:00,
2013-07-31 10:44:00,80.3,62.7,30.14,SSE,161,4.0,9.0,55,0.00,,,0.00,Wunderground PWS Mod,2013-07-31 14:44:00,
2013-07-31 10:46:00,80.2,63.6,30.13,SE,135,4.0,9.0,57,0.00,,,0.00,Wunderground PWS Mod,2013-07-31 14:46:00,
2013-07-31 10:54:00,79.8,61.7,30.14,SSW,206,3.0,9.0,54,0.00,,,0.00,Wunderground PWS Mod,2013-07-31 14:54:00,
2013-07-31 11:04:00,79.9,60.7,30.14,SSW,210,2.0,9.0,52,0.00,,,0.00,Wunderground PWS Mod,2013-07-31 15:04:00,
2013-07-31 11:14:00,79.7,60.5,30.14,SSE,153,5.0,10.0,52,0.00,,,0.00,Wunderground PWS Mod,2013-07-31 15:14:00,
2013-07-31 11:16:00,79.9,61.8,30.14,SSW,203,4.0,10.0,54,0.00,,,0.00,Wunderground PWS Mod,2013-07-31 15:16:00,
2013-07-31 11:24:00,80.4,61.7,30.13,SSE,150,6.0,10.0,53,0.00,,,0.00,Wunderground PWS Mod,2013-07-31 15:24:00,
2013-07-31 11:34:00,80.1,61.4,30.13,SSE,151,3.0,10.0,53,0.00,,,0.00,Wunderground PWS Mod,2013-07-31 15:34:00,
2013-07-31 11:44:00,80.5,61.3,30.13,South,170,5.0,10.0,52,0.00,,,0.00,Wunderground PWS Mod,2013-07-31 15:44:00,
2013-07-31 11:48:00,80.8,61.5,30.12,SSW,203,4.0,10.0,52,0.00,,,0.00,Wunderground PWS Mod,2013-07-31 15:48:00,
2013-07-31 11:54:00,81.3,62.0,30.12,ESE,119,4.0,10.0,52,0.00,,,0.00,Wunderground PWS Mod,2013-07-31 15:54:00,
2013-07-31 12:04:00,81.3,61.4,30.12,South,174,4.0,10.0,51,0.00,,,0.00,Wunderground PWS Mod,2013-07-31 16:04:00,
2013-07-31 12:14:00,80.6,62.4,30.12,ESE,122,4.0,10.0,54,0.00,,,0.00,Wunderground PWS Mod,2013-07-31 16:14:00,
2013-07-31 12:18:00,80.6,62.9,30.11,SE,135,4.0,10.0,55,0.00,,,0.00,Wunderground PWS Mod,2013-07-31 16:18:00,
2013-07-31 12:24:00,80.6,62.4,30.12,SSE,148,4.0,10.0,54,0.00,,,0.00,Wunderground PWS Mod,2013-07-31 16:24:00,
2013-07-31 12:34:00,79.8,62.7,30.12,SE,134,5.0,10.0,56,0.00,,,0.00,Wunderground PWS Mod,2013-07-31 16:34:00,
2013-07-31 12:44:00,79.1,61.5,30.12,SE,136,5.0,10.0,55,0.00,,,0.00,Wunderground PWS Mod,2013-07-31 16:44:00,
2013-07-31 12:48:00,79.5,62.9,30.11,SE,135,5.0,10.0,57,0.00,,,0.00,Wunderground PWS Mod,2013-07-31 16:48:00,
2013-07-31 12:54:00,79.8,62.7,30.12,SSE,159,4.0,10.0,56,0.00,,,0.00,Wunderground PWS Mod,2013-07-31 16:54:00,
2013-07-31 13:04:00,79.4,62.8,30.11,SSE,151,5.0,10.0,57,0.00,,,0.00,Wunderground PWS Mod,2013-07-31 17:04:00,
2013-07-31 13:14:00,79.3,63.7,30.11,South,180,4.0,10.0,59,0.00,,,0.00,Wunderground PWS Mod,2013-07-31 17:14:00,
2013-07-31 13:16:00,79.5,62.9,30.11,SE,135,5.0,10.0,57,0.00,,,0.00,Wunderground PWS Mod,2013-07-31 17:16:00,
2013-07-31 13:24:00,78.8,64.2,30.11,SSE,160,6.0,10.0,61,0.00,,,0.00,Wunderground PWS Mod,2013-07-31 17:24:00,
2013-07-31 13:34:00,78.6,64.5,30.10,SSE,158,2.0,10.0,62,0.00,,,0.00,Wunderground PWS Mod,2013-07-31 17:34:00,
2013-07-31 13:44:00,78.8,64.7,30.10,SSW,192,3.0,10.0,62,0.00,,,0.00,Wunderground PWS Mod,2013-07-31 17:44:00,
2013-07-31 13:48:00,78.9,64.8,30.09,SSE,158,4.0,9.0,62,0.00,,,0.00,Wunderground PWS Mod,2013-07-31 17:48:00,
2013-07-31 13:54:00,79.2,64.6,30.10,SSE,156,3.0,10.0,61,0.00,,,0.00,Wunderground PWS Mod,2013-07-31 17:54:00,
2013-07-31 14:04:00,79.3,65.1,30.10,South,177,3.0,10.0,62,0.00,,,0.00,Wunderground PWS Mod,2013-07-31 18:04:00,
2013-07-31 14:14:00,79.4,65.2,30.09,SE,129,3.0,10.0,62,0.00,,,0.00,Wunderground PWS Mod,2013-07-31 18:14:00,
2013-07-31 14:18:00,79.2,65.5,30.09,SE,135,4.0,8.0,63,0.00,,,0.00,Wunderground PWS Mod,2013-07-31 18:18:00,
2013-07-31 14:24:00,79.1,65.0,30.09,SE,131,3.0,10.0,62,0.00,,,0.00,Wunderground PWS Mod,2013-07-31 18:24:00,
2013-07-31 14:34:00,78.7,65.5,30.09,SE,140,6.0,10.0,64,0.00,,,0.00,Wunderground PWS Mod,2013-07-31 18:34:00,
2013-07-31 14:44:00,79.2,65.5,30.09,South,191,4.0,10.0,63,0.00,,,0.00,Wunderground PWS Mod,2013-07-31 18:44:00,
2013-07-31 14:46:00,79.2,65.5,30.09,SE,135,4.0,8.0,63,0.00,,,0.00,Wunderground PWS Mod,2013-07-31 18:46:00,
2013-07-31 14:54:00,80.2,65.5,30.09,SW,232,4.0,10.0,61,0.00,,,0.00,Wunderground PWS Mod,2013-07-31 18:54:00,
2013-07-31 15:04:00,80.5,65.3,30.09,SSE,152,4.0,8.0,60,0.00,,,0.00,Wunderground PWS Mod,2013-07-31 19:04:00,
2013-07-31 15:14:00,80.1,64.5,30.08,SSE,162,3.0,9.0,59,0.00,,,0.00,Wunderground PWS Mod,2013-07-31 19:14:00,
2013-07-31 15:16:00,79.5,64.4,30.08,SE,135,4.0,9.0,60,0.00,,,0.00,Wunderground PWS Mod,2013-07-31 19:16:00,
2013-07-31 15:24:00,80.2,64.6,30.08,SSW,192,9.0,9.0,59,0.00,,,0.00,Wunderground PWS Mod,2013-07-31 19:24:00,
2013-07-31 15:34:00,80.1,65.0,30.08,SW,216,6.0,9.0,60,0.00,,,0.00,Wunderground PWS Mod,2013-07-31 19:34:00,
2013-07-31 15:44:00,80.7,65.5,30.08,South,190,6.0,11.0,60,0.00,,,0.00,Wunderground PWS Mod,2013-07-31 19:44:00,
2013-07-31 15:46:00,80.2,65.1,30.08,SSW,203,4.0,11.0,60,0.00,,,0.00,Wunderground PWS Mod,2013-07-31 19:46:00,
2013-07-31 15:54:00,79.8,64.7,30.08,SE,138,7.0,11.0,60,0.00,,,0.00,Wunderground PWS Mod,2013-07-31 19:54:00,
2013-07-31 16:04:00,79.6,65.0,30.07,South,181,5.0,11.0,61,0.00,,,0.00,Wunderground PWS Mod,2013-07-31 20:04:00,
2013-07-31 16:14:00,79.3,65.1,30.07,South,184,5.0,11.0,62,0.00,,,0.00,Wunderground PWS Mod,2013-07-31 20:14:00,
2013-07-31 16:18:00,79.2,65.5,30.06,SSE,158,5.0,11.0,63,0.00,,,0.00,Wunderground PWS Mod,2013-07-31 20:18:00,
2013-07-31 16:24:00,78.9,64.8,30.07,SE,141,5.0,11.0,62,0.00,,,0.00,Wunderground PWS Mod,2013-07-31 20:24:00,
2013-07-31 16:34:00,78.4,64.8,30.07,SSE,159,6.0,11.0,63,0.00,,,0.00,Wunderground PWS Mod,2013-07-31 20:34:00,
2013-07-31 16:44:00,78.7,64.1,30.06,SSW,211,3.0,11.0,61,0.00,,,0.00,Wunderground PWS Mod,2013-07-31 20:44:00,
2013-07-31 16:48:00,78.6,65.4,30.06,South,180,4.0,8.0,64,0.00,,,0.00,Wunderground PWS Mod,2013-07-31 20:48:00,
2013-07-31 16:54:00,78.8,65.1,30.06,South,170,3.0,11.0,63,0.00,,,0.00,Wunderground PWS Mod,2013-07-31 20:54:00,
2013-07-31 17:04:00,78.4,65.2,30.06,SSE,147,3.0,11.0,64,0.00,,,0.00,Wunderground PWS Mod,2013-07-31 21:04:00,
2013-07-31 17:14:00,78.5,65.8,30.06,SSE,166,2.0,11.0,65,0.00,,,0.00,Wunderground PWS Mod,2013-07-31 21:14:00,
2013-07-31 17:18:00,78.4,66.1,30.06,SSE,158,3.0,7.0,66,0.00,,,0.00,Wunderground PWS Mod,2013-07-31 21:18:00,
2013-07-31 17:24:00,78.3,66.0,30.06,South,189,2.0,11.0,66,0.00,,,0.00,Wunderground PWS Mod,2013-07-31 21:24:00,
2013-07-31 17:34:00,78.5,66.2,30.05,SSW,209,1.0,11.0,66,0.00,,,0.00,Wunderground PWS Mod,2013-07-31 21:34:00,
2013-07-31 17:44:00,78.7,66.4,30.05,SSW,210,3.0,11.0,66,0.00,,,0.00,Wunderground PWS Mod,2013-07-31 21:44:00,
2013-07-31 17:46:00,78.4,66.1,30.06,SSE,158,3.0,7.0,66,0.00,,,0.00,Wunderground PWS Mod,2013-07-31 21:46:00,
2013-07-31 17:54:00,79.4,65.7,30.05,SSE,149,3.0,11.0,63,0.00,,,0.00,Wunderground PWS Mod,2013-07-31 21:54:00,
2013-07-31 18:04:00,78.8,65.6,30.05,SSW,210,2.0,7.0,64,0.00,,,0.00,Wunderground PWS Mod,2013-07-31 22:04:00,
2013-07-31 18:14:00,78.3,65.6,30.04,SSE,153,3.0,7.0,65,0.00,,,0.00,Wunderground PWS Mod,2013-07-31 22:14:00,
2013-07-31 18:16:00,78.9,65.2,30.05,SSW,203,2.0,6.0,63,0.00,,,0.00,Wunderground PWS Mod,2013-07-31 22:16:00,
2013-07-31 18:24:00,78.3,66.0,30.04,SSE,148,6.0,7.0,66,0.00,,,0.00,Wunderground PWS Mod,2013-07-31 22:24:00,
2013-07-31 18:34:00,78.5,66.2,30.04,SSE,150,6.0,8.0,66,0.00,,,0.00,Wunderground PWS Mod,2013-07-31 22:34:00,
2013-07-31 18:44:00,77.9,65.6,30.03,SSE,160,4.0,8.0,66,0.00,,,0.00,Wunderground PWS Mod,2013-07-31 22:44:00,
2013-07-31 18:50:00,78.1,64.9,30.03,SSE,158,5.0,11.0,64,0.00,,,0.00,Wunderground PWS Mod,2013-07-31 22:50:00,
2013-07-31 18:52:00,78.1,64.9,30.03,SSE,158,5.0,11.0,64,0.00,,,0.00,Wunderground PWS Mod,2013-07-31 22:52:00,
2013-07-31 18:54:00,78.0,64.8,30.03,SW,214,2.0,8.0,64,0.00,,,0.00,Wunderground PWS Mod,2013-07-31 22:54:00,
2013-07-31 19:04:00,78.0,64.4,30.03,South,183,3.0,8.0,63,0.00,,,0.00,Wunderground PWS Mod,2013-07-31 23:04:00,
2013-07-31 19:10:00,78.1,64.9,30.03,SSE,158,5.0,11.0,64,0.00,,,0.00,Wunderground PWS Mod,2013-07-31 23:10:00,
2013-07-31 19:12:00,78.1,64.9,30.03,SSE,158,5.0,11.0,64,0.00,,,0.00,Wunderground PWS Mod,2013-07-31 23:12:00,
2013-07-31 19:14:00,78.0,64.4,30.03,SSE,166,4.0,11.0,63,0.00,,,0.00,Wunderground PWS Mod,2013-07-31 23:14:00,
2013-07-31 19:24:00,78.0,64.4,30.03,SSW,194,2.0,11.0,63,0.00,,,0.00,Wunderground PWS Mod,2013-07-31 23:24:00,
2013-07-31 19:34:00,77.8,64.2,30.03,SSW,204,7.0,11.0,63,0.00,,,0.00,Wunderground PWS Mod,2013-07-31 23:34:00,
2013-07-31 19:44:00,77.6,64.0,30.03,SSW,210,4.0,11.0,63,0.00,,,0.00,Wunderground PWS Mod,2013-07-31 23:44:00,
2013-07-31 19:46:00,78.0,64.4,30.03,South,180,4.0,10.0,63,0.00,,,0.00,Wunderground PWS Mod,2013-07-31 23:46:00,
2013-07-31 19:54:00,77.2,64.1,30.03,South,178,4.0,11.0,64,0.00,,,0.00,Wunderground PWS Mod,2013-07-31 23:54:00,
2013-07-31 20:04:00,77.1,63.5,30.03,SW,223,4.0,10.0,63,0.00,,,0.00,Wunderground PWS Mod,2013-08-01 00:04:00,
2013-07-31 20:14:00,76.8,63.2,30.03,South,178,3.0,10.0,63,0.00,,,0.00,Wunderground PWS Mod,2013-08-01 00:14:00,
2013-07-31 20:16:00,77.5,63.9,30.03,SSW,203,4.0,10.0,63,0.00,,,0.00,Wunderground PWS Mod,2013-08-01 00:16:00,
2013-07-31 20:24:00,76.2,62.7,30.03,South,189,6.0,10.0,63,0.00,,,0.00,Wunderground PWS Mod,2013-08-01 00:24:00,
2013-07-31 20:34:00,75.5,62.9,30.03,SSW,208,3.0,10.0,65,0.00,,,0.00,Wunderground PWS Mod,2013-08-01 00:34:00,
2013-07-31 20:44:00,75.4,63.2,30.03,South,188,2.0,10.0,66,0.00,,,0.00,Wunderground PWS Mod,2013-08-01 00:44:00,
2013-07-31 20:48:00,75.3,63.6,30.04,SSW,203,3.0,9.0,67,0.00,,,0.00,Wunderground PWS Mod,2013-08-01 00:48:00,
2013-07-31 20:54:00,75.1,63.4,30.04,SW,223,2.0,10.0,67,0.00,,,0.00,Wunderground PWS Mod,2013-08-01 00:54:00,
2013-07-31 21:04:00,75.2,63.5,30.04,SSW,210,2.0,8.0,67,0.00,,,0.00,Wunderground PWS Mod,2013-08-01 01:04:00,
2013-07-31 21:14:00,75.1,63.4,30.04,SW,224,3.0,9.0,67,0.00,,,0.00,Wunderground PWS Mod,2013-08-01 01:14:00,
2013-07-31 21:16:00,75.3,63.6,30.04,SSW,203,3.0,9.0,67,0.00,,,0.00,Wunderground PWS Mod,2013-08-01 01:16:00,
2013-07-31 21:24:00,75.3,63.6,30.04,SSW,202,2.0,9.0,67,0.00,,,0.00,Wunderground PWS Mod,2013-08-01 01:24:00,
2013-07-31 21:34:00,74.8,63.9,30.04,SSW,196,1.0,9.0,69,0.00,,,0.00,Wunderground PWS Mod,2013-08-01 01:34:00,
2013-07-31 21:44:00,74.7,63.9,30.05,South,181,3.0,9.0,69,0.00,,,0.00,Wunderground PWS Mod,2013-08-01 01:44:00,
2013-07-31 21:48:00,74.7,63.9,30.04,SSW,203,3.0,9.0,69,0.00,,,0.00,Wunderground PWS Mod,2013-08-01 01:48:00,
2013-07-31 21:54:00,74.5,63.7,30.05,SW,214,2.0,9.0,69,0.00,,,0.00,Wunderground PWS Mod,2013-08-01 01:54:00,
2013-07-31 22:04:00,73.9,63.5,30.05,South,188,4.0,5.0,70,0.00,,,0.00,Wunderground PWS Mod,2013-08-01 02:04:00,
2013-07-31 22:14:00,74.2,63.4,30.04,SSW,204,3.0,9.0,69,0.00,,,0.00,Wunderground PWS Mod,2013-08-01 02:14:00,
2013-07-31 22:16:00,74.7,63.9,30.04,SSW,203,3.0,9.0,69,0.00,,,0.00,Wunderground PWS Mod,2013-08-01 02:16:00,
2013-07-31 22:24:00,73.7,63.3,30.05,SSW,208,2.0,9.0,70,0.00,,,0.00,Wunderground PWS Mod,2013-08-01 02:24:00,
2013-07-31 22:34:00,73.2,63.2,30.04,SSW,203,5.0,9.0,71,0.00,,,0.00,Wunderground PWS Mod,2013-08-01 02:34:00,
2013-07-31 22:44:00,73.3,63.3,30.04,SSW,206,2.0,9.0,71,0.00,,,0.00,Wunderground PWS Mod,2013-08-01 02:44:00,
2013-07-31 22:46:00,73.8,63.8,30.04,SW,225,3.0,7.0,71,0.00,,,0.00,Wunderground PWS Mod,2013-08-01 02:46:00,
2013-07-31 22:54:00,73.5,63.1,30.04,South,189,2.0,9.0,70,0.00,,,0.00,Wunderground PWS Mod,2013-08-01 02:54:00,
2013-07-31 23:04:00,73.6,63.2,30.03,SW,218,4.0,7.0,70,0.00,,,0.00,Wunderground PWS Mod,2013-08-01 03:04:00,
2013-07-31 23:10:00,73.4,63.0,30.03,SSW,203,3.0,6.0,70,0.00,,,0.00,Wunderground PWS Mod,2013-08-01 03:10:00,
2013-07-31 23:12:00,73.4,63.0,30.03,SSW,203,3.0,6.0,70,0.00,,,0.00,Wunderground PWS Mod,2013-08-01 03:12:00,
2013-07-31 23:14:00,73.7,63.3,30.03,SSW,203,1.0,7.0,70,0.00,,,0.00,Wunderground PWS Mod,2013-08-01 03:14:00,
2013-07-31 23:24:00,74.3,63.9,30.03,SSW,206,3.0,7.0,70,0.00,,,0.00,Wunderground PWS Mod,2013-08-01 03:24:00,
2013-07-31 23:34:00,74.1,63.7,30.03,SSW,212,3.0,7.0,70,0.00,,,0.00,Wunderground PWS Mod,2013-08-01 03:34:00,
2013-07-31 23:44:00,73.9,63.9,30.03,SSW,195,4.0,7.0,71,0.00,,,0.00,Wunderground PWS Mod,2013-08-01 03:44:00,
2013-07-31 23:48:00,73.5,64.7,30.02,SSW,203,4.0,9.0,74,0.00,,,0.00,Wunderground PWS Mod,2013-08-01 03:48:00,
2013-07-31 23:54:00,73.0,63.8,30.02,SSW,199,3.0,7.0,73,0.00,,,0.00,Wunderground PWS Mod,2013-08-01 03:54:00,